EZY57CP EGPH-EGGD

Flight info

Callsign EZY57CP
Flight time 0h 56m
Altitude 29000
Route GOSAM P600 FENIK L612 CROFT P16 NOKIN N862 WEVBE
Aircraft A320/M-SDE2E3FGHIJ1RWXYZ/LB1

Departure

Time 2026-05-06 20:26
Airport Edinburgh Airport (EGPH)

Arrival

Time 2026-05-06 21:22
Airport Bristol Airport (EGGD)
Time Latitude Longitude Altitude Speed Heading
2026-05-06 20:12 55.94977 -3.36230 113 ft 0 kts 117°
2026-05-06 20:12 55.94978 -3.36236 118 ft 0 kts 117°
2026-05-06 20:17 55.94983 -3.36254 116 ft 3 kts 117°
2026-05-06 20:17 55.94992 -3.36286 116 ft 3 kts 117°
2026-05-06 20:17 55.95001 -3.36319 114 ft 3 kts 117°
2026-05-06 20:18 55.95009 -3.36346 113 ft 3 kts 114°
2026-05-06 20:18 55.95014 -3.36378 116 ft 3 kts 83°
2026-05-06 20:18 55.95009 -3.36412 116 ft 3 kts 61°
2026-05-06 20:18 55.94999 -3.36440 116 ft 3 kts 58°
2026-05-06 20:19 55.94995 -3.36453 116 ft 0 kts 58°
2026-05-06 20:21 55.94995 -3.36452 116 ft 2 kts 58°
2026-05-06 20:21 55.95014 -3.36403 113 ft 5 kts 46°
2026-05-06 20:21 55.95047 -3.36388 114 ft 6 kts 351°
2026-05-06 20:22 55.95055 -3.36486 116 ft 12 kts 231°
2026-05-06 20:22 55.95020 -3.36608 116 ft 10 kts 242°
2026-05-06 20:22 55.94987 -3.36713 114 ft 9 kts 240°
2026-05-06 20:22 55.94933 -3.36871 115 ft 22 kts 236°
2026-05-06 20:23 55.94850 -3.37114 112 ft 24 kts 239°
2026-05-06 20:23 55.94761 -3.37377 113 ft 26 kts 238°
2026-05-06 20:23 55.94673 -3.37646 115 ft 20 kts 245°
2026-05-06 20:23 55.94601 -3.37856 113 ft 17 kts 239°
2026-05-06 20:24 55.94632 -3.37995 113 ft 12 kts 329°
2026-05-06 20:24 55.94703 -3.38066 113 ft 8 kts 342°
2026-05-06 20:24 55.94737 -3.38031 114 ft 5 kts 61°
2026-05-06 20:24 55.94739 -3.38024 115 ft 0 kts 61°
2026-05-06 20:25 55.94761 -3.37954 113 ft 30 kts 61°
2026-05-06 20:25 55.95027 -3.37162 112 ft 114 kts 58°
2026-05-06 20:25 55.95524 -3.35643 335 ft 154 kts 62°
2026-05-06 20:26 55.96072 -3.34009 1166 ft 150 kts 53°
2026-05-06 20:26 55.96828 -3.32590 1624 ft 168 kts 44°
2026-05-06 20:26 55.97759 -3.31131 1964 ft 193 kts 42°
2026-05-06 20:26 55.98841 -3.29476 2401 ft 216 kts 41°
2026-05-06 20:27 56.00208 -3.28091 2848 ft 241 kts 11°
2026-05-06 20:27 56.01920 -3.28452 3398 ft 260 kts 333°
2026-05-06 20:27 56.03225 -3.30684 4239 ft 266 kts 296°
2026-05-06 20:27 56.03599 -3.33889 5176 ft 267 kts 266°
2026-05-06 20:28 56.03287 -3.37160 6145 ft 268 kts 254°
2026-05-06 20:28 56.02731 -3.40350 7092 ft 270 kts 250°
2026-05-06 20:28 56.02115 -3.43545 8015 ft 273 kts 250°
2026-05-06 20:28 56.01512 -3.46781 8906 ft 276 kts 252°
2026-05-06 20:29 56.00943 -3.50084 9773 ft 280 kts 252°
2026-05-06 20:29 56.00145 -3.53307 10375 ft 294 kts 242°
2026-05-06 20:29 55.99127 -3.56629 10765 ft 313 kts 240°
2026-05-06 20:29 55.98043 -3.60067 11466 ft 321 kts 240°
2026-05-06 20:30 55.96934 -3.63548 12254 ft 325 kts 240°
2026-05-06 20:30 55.94677 -3.70629 13779 ft 332 kts 240°
2026-05-06 20:30 55.93533 -3.74230 14506 ft 335 kts 241°
2026-05-06 20:31 55.92380 -3.77861 15225 ft 339 kts 241°
2026-05-06 20:31 55.91212 -3.81534 15903 ft 342 kts 241°
2026-05-06 20:31 55.90033 -3.85240 16586 ft 345 kts 241°
2026-05-06 20:31 55.88840 -3.88981 17231 ft 349 kts 241°
2026-05-06 20:32 55.87633 -3.92754 17871 ft 352 kts 241°
2026-05-06 20:32 55.86415 -3.96562 18497 ft 356 kts 241°
2026-05-06 20:32 55.85186 -4.00405 19109 ft 359 kts 241°
2026-05-06 20:32 55.83944 -4.04277 19718 ft 362 kts 241°
2026-05-06 20:33 55.82703 -4.08124 20308 ft 365 kts 241°
2026-05-06 20:33 55.81433 -4.12053 20888 ft 368 kts 241°
2026-05-06 20:33 55.80145 -4.16010 21458 ft 371 kts 239°
2026-05-06 20:33 55.78564 -4.19748 22021 ft 376 kts 229°
2026-05-06 20:34 55.76616 -4.22888 22560 ft 382 kts 218°
2026-05-06 20:34 55.74393 -4.25464 23084 ft 387 kts 207°
2026-05-06 20:34 55.71769 -4.26659 23570 ft 396 kts 183°
2026-05-06 20:34 55.69036 -4.25870 24048 ft 405 kts 160°
2026-05-06 20:35 55.66652 -4.23190 24504 ft 412 kts 136°
2026-05-06 20:35 55.65006 -4.19105 24944 ft 417 kts 117°
2026-05-06 20:35 55.63589 -4.14612 25355 ft 420 kts 128°
2026-05-06 20:35 55.61417 -4.11101 25787 ft 420 kts 151°
2026-05-06 20:36 55.58757 -4.09000 26208 ft 421 kts 159°
2026-05-06 20:36 55.56098 -4.06953 26616 ft 424 kts 156°
2026-05-06 20:36 55.53430 -4.04690 27017 ft 427 kts 155°
2026-05-06 20:36 55.50769 -4.02326 27407 ft 430 kts 154°
2026-05-06 20:37 55.48095 -3.99934 27782 ft 432 kts 154°
2026-05-06 20:37 55.45396 -3.97556 28145 ft 435 kts 155°
2026-05-06 20:37 55.42671 -3.95211 28528 ft 437 kts 155°
2026-05-06 20:37 55.39920 -3.92891 28881 ft 440 kts 155°
2026-05-06 20:38 55.37153 -3.90589 29001 ft 437 kts 156°
2026-05-06 20:38 55.34454 -3.88358 29025 ft 420 kts 156°
2026-05-06 20:38 55.31844 -3.86208 29026 ft 410 kts 156°
2026-05-06 20:39 55.26714 -3.81978 29028 ft 406 kts 156°
2026-05-06 20:39 55.21616 -3.77752 29027 ft 405 kts 155°
2026-05-06 20:40 55.16528 -3.73540 29027 ft 405 kts 156°
2026-05-06 20:40 55.11437 -3.69353 29027 ft 404 kts 156°
2026-05-06 20:41 55.06350 -3.65166 29024 ft 404 kts 155°
2026-05-06 20:41 55.01269 -3.60998 29027 ft 403 kts 155°
2026-05-06 20:42 54.96210 -3.56753 29027 ft 404 kts 153°
2026-05-06 20:42 54.91277 -3.52103 29025 ft 403 kts 152°
2026-05-06 20:43 54.86382 -3.47356 29025 ft 403 kts 152°
2026-05-06 20:43 54.81461 -3.42689 29026 ft 403 kts 152°
2026-05-06 20:44 54.76530 -3.38095 29024 ft 402 kts 152°
2026-05-06 20:44 54.71592 -3.33546 29024 ft 402 kts 154°
2026-05-06 20:45 54.66509 -3.29528 29023 ft 401 kts 158°
2026-05-06 20:45 54.61389 -3.25853 29020 ft 401 kts 158°
2026-05-06 20:46 54.56244 -3.22111 29020 ft 401 kts 158°
2026-05-06 20:46 54.51127 -3.18309 29021 ft 400 kts 157°
2026-05-06 20:47 54.46017 -3.14488 29017 ft 400 kts 157°
2026-05-06 20:47 54.40907 -3.10679 29016 ft 400 kts 157°
2026-05-06 20:48 54.35796 -3.06890 29017 ft 400 kts 157°
2026-05-06 20:48 54.30683 -3.03112 29016 ft 400 kts 157°
2026-05-06 20:49 54.25569 -2.99360 29017 ft 399 kts 159°
2026-05-06 20:49 54.22902 -2.98155 29015 ft 397 kts 176°
2026-05-06 20:49 54.20147 -2.98021 29018 ft 395 kts 181°
2026-05-06 20:50 54.14642 -2.98031 29019 ft 396 kts 181°
2026-05-06 20:50 54.09128 -2.98079 29022 ft 396 kts 181°
2026-05-06 20:51 54.03613 -2.98118 29023 ft 396 kts 181°
2026-05-06 20:51 53.98101 -2.98145 29025 ft 396 kts 181°
2026-05-06 20:52 53.92592 -2.98168 29030 ft 395 kts 181°
2026-05-06 20:52 53.87097 -2.98184 29029 ft 395 kts 181°
2026-05-06 20:53 53.81604 -2.98212 29024 ft 394 kts 181°
2026-05-06 20:53 53.76117 -2.98237 29020 ft 394 kts 181°
2026-05-06 20:54 53.70668 -2.98257 29018 ft 394 kts 181°
2026-05-06 20:54 53.65186 -2.98279 29015 ft 394 kts 181°
2026-05-06 20:55 53.59701 -2.98305 29018 ft 394 kts 181°
2026-05-06 20:55 53.54216 -2.98334 29021 ft 394 kts 181°
2026-05-06 20:56 53.48732 -2.98362 29026 ft 394 kts 181°
2026-05-06 20:56 53.43255 -2.98388 29029 ft 393 kts 181°
2026-05-06 20:57 53.37779 -2.98408 29033 ft 393 kts 181°
2026-05-06 20:57 53.32310 -2.98431 29036 ft 393 kts 181°
2026-05-06 20:58 53.26843 -2.98450 29037 ft 393 kts 181°
2026-05-06 20:58 53.21372 -2.98478 29034 ft 393 kts 181°
2026-05-06 20:59 53.15937 -2.98507 29036 ft 393 kts 181°
2026-05-06 20:59 53.10470 -2.98523 29032 ft 393 kts 181°
2026-05-06 21:00 53.05006 -2.98543 29029 ft 392 kts 181°
2026-05-06 21:00 52.99547 -2.98562 29026 ft 392 kts 181°
2026-05-06 21:01 52.94093 -2.98576 29024 ft 392 kts 181°
2026-05-06 21:01 52.88639 -2.98593 29023 ft 392 kts 181°
2026-05-06 21:02 52.83144 -2.98631 29030 ft 405 kts 181°
2026-05-06 21:02 52.80281 -2.98648 29025 ft 418 kts 181°
2026-05-06 21:02 52.77346 -2.98659 29027 ft 424 kts 181°
2026-05-06 21:03 52.71420 -2.98673 29027 ft 426 kts 181°
2026-05-06 21:03 52.65490 -2.98698 29025 ft 425 kts 181°
2026-05-06 21:03 52.62574 -2.98708 28775 ft 414 kts 181°
2026-05-06 21:04 52.59714 -2.98722 28322 ft 409 kts 181°
2026-05-06 21:04 52.56882 -2.98740 27820 ft 405 kts 181°
2026-05-06 21:04 52.54080 -2.98752 27306 ft 401 kts 181°
2026-05-06 21:04 52.51296 -2.98760 26795 ft 398 kts 181°
2026-05-06 21:05 52.48535 -2.98771 26286 ft 395 kts 181°
2026-05-06 21:05 52.45790 -2.98780 25561 ft 397 kts 181°
2026-05-06 21:05 52.42979 -2.98792 24423 ft 410 kts 181°
2026-05-06 21:05 52.40102 -2.98804 23519 ft 415 kts 181°
2026-05-06 21:06 52.37221 -2.98817 22828 ft 414 kts 181°
2026-05-06 21:06 52.34351 -2.98828 22212 ft 411 kts 181°
2026-05-06 21:06 52.31542 -2.98842 21637 ft 407 kts 181°
2026-05-06 21:06 52.28720 -2.98860 21061 ft 404 kts 181°
2026-05-06 21:07 52.25923 -2.98874 20502 ft 400 kts 181°
2026-05-06 21:07 52.23149 -2.98881 19952 ft 397 kts 181°
2026-05-06 21:07 52.20394 -2.98886 19412 ft 394 kts 181°
2026-05-06 21:07 52.17664 -2.98894 18874 ft 391 kts 181°
2026-05-06 21:08 52.14953 -2.98904 18331 ft 388 kts 181°
2026-05-06 21:08 52.12266 -2.98922 17805 ft 385 kts 181°
2026-05-06 21:08 52.09600 -2.99032 17270 ft 382 kts 183°
2026-05-06 21:08 52.06960 -2.99280 16741 ft 379 kts 185°
2026-05-06 21:09 52.05187 -2.99490 16378 ft 377 kts 185°
2026-05-06 21:09 52.02583 -2.99807 15849 ft 374 kts 185°
2026-05-06 21:09 51.99998 -3.00123 15321 ft 371 kts 185°
2026-05-06 21:09 51.97431 -3.00438 14770 ft 369 kts 185°
2026-05-06 21:10 51.94883 -3.00758 14244 ft 366 kts 185°
2026-05-06 21:10 51.92353 -3.01082 13713 ft 364 kts 185°
2026-05-06 21:10 51.89840 -3.01406 13181 ft 361 kts 185°
2026-05-06 21:10 51.87345 -3.01729 12640 ft 358 kts 185°
2026-05-06 21:11 51.84868 -3.02053 12096 ft 356 kts 185°
2026-05-06 21:11 51.82411 -3.02377 11541 ft 353 kts 185°
2026-05-06 21:11 51.79972 -3.02701 10980 ft 350 kts 185°
2026-05-06 21:11 51.77548 -3.03025 10433 ft 347 kts 185°
2026-05-06 21:12 51.75152 -3.03350 9875 ft 344 kts 185°
2026-05-06 21:12 51.72778 -3.03679 9336 ft 341 kts 185°
2026-05-06 21:12 51.70427 -3.04008 8774 ft 338 kts 185°
2026-05-06 21:12 51.68099 -3.04337 8202 ft 335 kts 185°
2026-05-06 21:13 51.65789 -3.04664 7635 ft 332 kts 185°
2026-05-06 21:13 51.63500 -3.04992 7069 ft 329 kts 185°
2026-05-06 21:13 51.61227 -3.05319 6497 ft 326 kts 185°
2026-05-06 21:13 51.58974 -3.05645 5936 ft 324 kts 185°
2026-05-06 21:14 51.56740 -3.05971 5370 ft 321 kts 185°
2026-05-06 21:14 51.54573 -3.06291 5165 ft 300 kts 185°
2026-05-06 21:14 51.52599 -3.06587 5039 ft 271 kts 185°
2026-05-06 21:14 51.50821 -3.06959 4907 ft 246 kts 197°
2026-05-06 21:15 51.49425 -3.08254 4787 ft 225 kts 221°
2026-05-06 21:15 51.48305 -3.09938 4659 ft 216 kts 225°
2026-05-06 21:15 51.47156 -3.11384 4528 ft 206 kts 201°
2026-05-06 21:15 51.45804 -3.11564 4441 ft 191 kts 164°
2026-05-06 21:16 51.44753 -3.10434 4262 ft 180 kts 129°
2026-05-06 21:16 51.44049 -3.08804 4046 ft 177 kts 121°
2026-05-06 21:16 51.43405 -3.07113 3894 ft 178 kts 120°
2026-05-06 21:16 51.42776 -3.05441 3749 ft 177 kts 120°
2026-05-06 21:17 51.42140 -3.03750 3598 ft 177 kts 120°
2026-05-06 21:17 51.41505 -3.02064 3418 ft 176 kts 120°
2026-05-06 21:17 51.40872 -3.00387 3165 ft 176 kts 120°
2026-05-06 21:17 51.40242 -2.98718 2914 ft 175 kts 120°
2026-05-06 21:18 51.39614 -2.97060 2666 ft 174 kts 120°
2026-05-06 21:18 51.38989 -2.95408 2412 ft 173 kts 120°
2026-05-06 21:18 51.38369 -2.93765 2161 ft 172 kts 120°
2026-05-06 21:18 51.37770 -2.92126 2037 ft 171 kts 114°
2026-05-06 21:19 51.37532 -2.90290 2027 ft 169 kts 89°
2026-05-06 21:19 51.37606 -2.88423 2008 ft 165 kts 86°
2026-05-06 21:19 51.37681 -2.86607 2008 ft 162 kts 86°
2026-05-06 21:19 51.37754 -2.84816 1957 ft 161 kts 86°
2026-05-06 21:20 51.37825 -2.83037 1800 ft 160 kts 86°
2026-05-06 21:20 51.37896 -2.81268 1620 ft 159 kts 86°
2026-05-06 21:20 51.37967 -2.79503 1412 ft 159 kts 86°
2026-05-06 21:20 51.38038 -2.77783 1203 ft 150 kts 86°
2026-05-06 21:21 51.38104 -2.76153 1004 ft 143 kts 87°
2026-05-06 21:21 51.38163 -2.74606 826 ft 137 kts 86°
2026-05-06 21:21 51.38222 -2.73104 652 ft 131 kts 86°
2026-05-06 21:21 51.38270 -2.71863 613 ft 78 kts 86°
2026-05-06 21:22 51.38301 -2.71457 610 ft 12 kts 23°
2026-05-06 21:22 51.38368 -2.71499 617 ft 9 kts 327°
2026-05-06 21:22 51.38413 -2.71533 618 ft 3 kts
2026-05-06 21:22 51.38430 -2.71522 615 ft 14 kts 32°
2026-05-06 21:23 51.38451 -2.71328 624 ft 19 kts 86°
2026-05-06 21:23 51.38459 -2.71122 621 ft 18 kts 86°
2026-05-06 21:23 51.38485 -2.71015 623 ft 10 kts 14°
2026-05-06 21:23 51.38511 -2.71014 626 ft 3 kts 358°
2026-05-06 21:24 51.38516 -2.71014 612 ft 0 kts 357°
2026-05-06 21:24 51.38526 -2.71015 623 ft 0 kts 356°